Showing default

KANOPUS-V-IK, 42825

Orbit data source: Space-Track

KANOPUS-V-IK, 42825 is a payload satellite owned by VNIIEM (CIS) in SSO that was launched on Fri, 14 Jul 2017 UTC via a SOYUZ-2-1A launch vehicle from the Tyuratam Missile And Space Complex (TTMTR). Payload-class satellites include a variety of spacecraft equipped with specific instruments for various scientific and technological missions. These include communications satellites like Starlink; space stations such as the ISS; scientific satellites like the Hubble; Earth observation satellites from companies like Planet Labs, Umbra, and HawkEye 360; GPS; miniature CubeSats for education and research; and military/defense satellites.

Loading next visibility...
Identifier
42825, 2017-042A
Orbit
SSO
Last TLE update
3 hours ago
Origin
Manufacturer
VNIIEM
Mission
Operational Civil Imaging
Bus & Motor
KANOPUS, Unknown motor
Mass
550 kg wet, 550 kg dry
Launch date (UTC)
2017-07-14 (8 years ago)
Launch vehicle
SOYUZ-2-1A
Launch site
Tyuratam Missile And Space Complex (TTMTR)
Object type
Payload
Rocket body
Debris
Shape & HBR
Box + 2 Pan, 6 m
Radar Cross Section
1.665 m², Large (>1 m²)

Expand to show TLE details & history

TLE from 3 hours ago
0 KANOPUS-V-IK
1 42825U 17042A   25129.16211802  .00003633  00000-0  15960-3 0  9994
2 42825  97.3810  37.2686 0002112  91.2761 268.8717 15.22541094433872
Epoch: 2025-05-09T03:53Z
Definitive object data (Epoch: 2025-05-09T03:53:26.996Z)
Latitude
-0.00011°
Longitude
111.68391°
Altitude
501.302 km
Speed
7.614 km/s
True Right ascension
02h 29m 04s
True Declination
0° 00' 00"
Sunlit
Object was in daylight at TLE epoch
Visualization TLE readout
Latitude
20.88149°
Longitude
108.99974°
Altitude
500.412 km
Speed
7.616 km/s
Apparent Right ascension
02h 43m 45s
Apparent Declination
-8° 16' 14"
Sunlit
Object is in daylight
Visualization observer readout
Local Sidereal Time
15:17:10
Azimuth
15.516° NNE
Elevation
-57.486°
Doppler factor
1
Orbital elements
Apogee altitude
496.592 km
Perigee altitude
493.689 km
Semi-major axis
6,873.277 km
Eccentricity
0.0002112
Inclination
97.381°
RAAN
37.2686°
Arg. of periapsis
91.2761°
True anomaly
268.8475°
Mean anomaly
268.8717°
Eccentric anomaly
268.8596°
Mean motion
3.80888 °/min
BSTAR
0.0001596
Orbital period
94.52 mins
Loading maneuver chart data...
Loading SW <> Apogee altitude chart data...

KANOPUS-V-IK Visibility forecast

Observer location: undefined°, undefined°

Span
Click to sort rows by Start time (UTC) header in descending order
Start Az.
Max El. time (UTC)
Max El. Az.
Max El.
End time (UTC)
End Az.
4 mins2025-05-09 07:36:13.863Z334.328° NNW2025-05-09 07:38:13.863Z300.044° NW17.365°2025-05-09 07:40:13.863Z259.143° W
6 mins2025-05-09 18:12:13.863Z186.214° SSW2025-05-09 18:15:13.863Z241.035° WSW35.372°2025-05-09 18:18:13.863Z331.034° NNW
|